Weather History for Patuxent River, MD

Change the Weather History Date:

Thursday, July 4, 2013

  Actual Average Record
Temperature  
Mean Temperature 81 °F -  
Max Temperature 89 °F 83 °F 98 °F (2002)
Min Temperature 75 °F 67 °F 60 °F (1979)
Cooling Degree Days 16    
Growing Degree Days 31 (Base 50)    
Moisture  
Dew Point 72 °F    
Average Humidity 77    
Maximum Humidity 90    
Minimum Humidity 57    
Precipitation  
Precipitation 0.00 in - - ()
Sea Level Pressure  
Sea Level Pressure 30.25 in    
Wind  
Wind Speed 8 mph (South)    
Max Wind Speed 14 mph    
Max Gust Speed 24 mph    
Visibility 10 miles    
Events      
Averages and records for this station are not official NWS values.
T = Trace of Precipitation, MM = Missing Value Source: NWS Daily Summary

Daily Weather History Graph

Daily Weather History Graph

Search for Another Location

Airport:

Trip Planner

Search our weather history database for the weather conditions in past years. The results will help you decide how hot, cold, wet, or windy it might be!

Date:

Astronomy

Jul. 04, 2013 Rise Set
Actual Time 5:47 AM EDT 8:32 PM EDT
Civil Twilight 5:16 AM EDT 9:03 PM EDT
Nautical Twilight 4:36 AM EDT 9:43 PM EDT
Astronomical Twilight 3:52 AM EDT 10:27 PM EDT
Moon 3:01 AM EDT (7/4) 5:35 PM EDT (7/4)
Length of Visible Light 15h 47m
Length of Day
14h 45m
Waning Crescent, 11% of the Moon is Illuminated
Jul 4
Waning Crescent
Jul 8
New
Jul 15
First Quarter
Jul 22
Full
Jul 29
Last Quarter

Hourly Weather History & Observations

Time (EDT) Temp. Heat Index Dew Point Humidity Pressure Visibility Wind Dir Wind Speed Gust Speed Precip Events Conditions
12:52 AM 75.9 °F - 72.0 °F 87% 30.24 in 10.0 mi SSW 5.8 mph - N/A   Clear
1:52 AM 75.9 °F - 71.1 °F 85% 30.24 in 10.0 mi SSW 5.8 mph - N/A   Clear
2:52 AM 75.9 °F - 72.0 °F 87% 30.24 in 10.0 mi SSW 5.8 mph - N/A   Clear
3:52 AM 75.9 °F - 72.0 °F 87% 30.24 in 10.0 mi SSW 5.8 mph - N/A   Clear
4:52 AM 75.0 °F - 72.0 °F 90% 30.25 in 10.0 mi SSW 8.1 mph - N/A   Clear
5:34 AM 75.2 °F - 71.6 °F 89% 30.25 in 10.0 mi SW 9.2 mph - N/A   Mostly Cloudy
5:52 AM 75.0 °F - 72.0 °F 90% 30.25 in 10.0 mi SW 8.1 mph - N/A   Scattered Clouds
6:14 AM 75.2 °F - 71.6 °F 89% 30.25 in 10.0 mi SW 6.9 mph - N/A   Mostly Cloudy
6:52 AM 75.0 °F - 72.0 °F 90% 30.26 in 10.0 mi SW 6.9 mph - N/A   Mostly Cloudy
7:52 AM 75.9 °F - 71.1 °F 85% 30.28 in 10.0 mi WSW 8.1 mph 17.3 mph N/A   Overcast
8:52 AM 78.1 °F - 71.1 °F 79% 30.29 in 10.0 mi SW 6.9 mph - N/A   Overcast
9:26 AM 80.6 °F 83.9 °F 69.8 °F 70% 30.28 in 10.0 mi SSW 10.4 mph - N/A   Scattered Clouds
9:52 AM 82.0 °F 86.3 °F 71.1 °F 69% 30.28 in 10.0 mi SSW 9.2 mph - N/A   Partly Cloudy
10:44 AM 82.4 °F 87.2 °F 71.6 °F 70% 30.28 in 10.0 mi South 9.2 mph - N/A   Mostly Cloudy
10:52 AM 82.9 °F 87.5 °F 71.1 °F 67% 30.28 in 10.0 mi SW 9.2 mph - N/A   Mostly Cloudy
11:25 AM 82.4 °F 87.2 °F 71.6 °F 70% 30.28 in 10.0 mi South 5.8 mph - N/A   Mostly Cloudy
11:52 AM 84.9 °F 89.4 °F 70.0 °F 61% 30.28 in 10.0 mi SSW 11.5 mph 16.1 mph N/A   Mostly Cloudy
12:52 PM 87.1 °F 92.0 °F 70.0 °F 57% 30.27 in 10.0 mi SW 8.1 mph - N/A   Scattered Clouds
1:52 PM 87.1 °F 92.0 °F 70.0 °F 57% 30.26 in 10.0 mi SSW 6.9 mph - N/A   Scattered Clouds
2:52 PM 84.9 °F 91.4 °F 73.0 °F 67% 30.25 in 10.0 mi SE 11.5 mph - N/A   Scattered Clouds
3:52 PM 84.0 °F 91.2 °F 73.9 °F 72% 30.23 in 10.0 mi SE 12.7 mph 24.2 mph N/A   Clear
4:52 PM 84.0 °F 90.2 °F 73.0 °F 69% 30.21 in 10.0 mi SE 13.8 mph 19.6 mph N/A   Clear
5:52 PM 84.0 °F 90.2 °F 73.0 °F 69% 30.20 in 10.0 mi SE 10.4 mph 18.4 mph N/A   Clear
6:28 PM 84.2 °F 89.6 °F 71.6 °F 66% 30.20 in 10.0 mi SSE 10.4 mph - N/A   Partly Cloudy
6:52 PM 82.9 °F 88.8 °F 73.0 °F 72% 30.21 in 10.0 mi SSE 10.4 mph 17.3 mph N/A   Clear
7:52 PM 81.0 °F 85.2 °F 72.0 °F 74% 30.22 in 10.0 mi SSE 6.9 mph - N/A   Clear
8:52 PM 79.0 °F - 72.0 °F 79% 30.22 in 10.0 mi South 6.9 mph - N/A   Clear
9:52 PM 78.1 °F - 72.0 °F 81% 30.23 in 10.0 mi South 8.1 mph - N/A   Clear
10:52 PM 78.1 °F - 72.0 °F 81% 30.24 in 10.0 mi SSE 5.8 mph - N/A   Clear
11:52 PM 77.0 °F - 73.0 °F 88% 30.24 in 10.0 mi SSE 4.6 mph - N/A   Clear